Back to catalog

FREGAT DEB

LostUNKNOWN
NORAD 46525·DEBRIS·🇷🇺 Russia

Launched Jul 18, 2011 from Baikonur Cosmodrome

Loading…

Next Passes (next 24 hours)

TLE

StaleSource: Space-Track

Epoch: Oct 3, 2020, 06:05 UTC

1 46525U 11037MD  20277.25397574  .00008472  00000-0  82692+0 0  9991
2 46525  51.6934 211.9934 1244096 199.3180 155.6021  9.30244489  3532

Track FREGAT DEB in real time with AllMySat

Download on the App Store